Simultaneous Nadir Overpasses (SNOs) Predictions

Prediction of SNOs between AQUA and METOP-B Satellite Orbit:

Table of predicted SNOs for the next 14.0 days since TLE Epoch: 6/8/2017
Index Date (AQUA) Time (AQUA) Lat,Lon (AQUA) SZA (AQUA ) Date (METOP-B) Time (METOP-B) Lat,Lon (METOP-B) SZA (METOP-B ) Distance(km) Time Diff (sec)
1 06/10/2017 08:55:13 73.75, 40.58 50.71 06/10/2017 08:54:17 73.76, 40.60 50.74 1.77 56
2 06/10/2017 09:44:40 -73.85,-151.99 129.19 06/10/2017 09:44:57 -73.84,-151.88 129.20 3.59 17
3 06/10/2017 10:34:19 74.42, 14.32 51.43 06/10/2017 10:35:25 74.43, 16.92 51.35 77.55 66
4 06/13/2017 04:29:27 73.75, 107.01 50.54 06/13/2017 04:28:38 73.76, 107.00 50.56 0.93 49
5 06/13/2017 05:18:53 -73.84, -85.54 129.37 06/13/2017 05:19:17 -73.84, -85.47 129.37 2.11 24
6 06/16/2017 00:03:40 73.76, 173.44 50.43 06/16/2017 00:02:58 73.76, 173.40 50.43 1.38 42
7 06/16/2017 00:53:07 -73.85, -19.11 129.49 06/16/2017 00:53:38 -73.84, -19.08 129.50 1.24 31
8 06/18/2017 19:37:54 73.78,-120.16 50.38 06/18/2017 19:37:18 73.80,-120.10 50.40 2.89 36
9 06/18/2017 20:27:21 -73.85, 47.32 129.55 06/18/2017 20:27:59 -73.83, 47.31 129.57 2.54 38
10 06/21/2017 15:12:08 73.80, -53.76 50.39 06/21/2017 15:11:39 73.79, -53.71 50.38 1.98 29
11 06/21/2017 16:01:35 -73.87, 113.73 129.54 06/21/2017 16:02:19 -73.87, 113.82 129.55 2.72 44




NCC Satellite Simultaneous Nadir Overpasses (SNOs) Prediction Service
